HEMAVAN current weather conditions

sailwx.info

Wind from 300 at 19 knots

Air temperature 4.0° C
Visibility: greater than 5.4 NM
Dewpoint 1.0° C

Last reported at 2015-Apr-19 19:20 UTC.
Time now 2015-Apr-19 21:05 UTC

Location: N 65°48' E 015°05'.
View on Google Maps.

See reports from other nearby stations

  
Tides and Currents Weather Stations Pressure Air Temp Water Temp Dewpoint Dewpoint Depression Visibility Wind Speed Wind Dir Waves Ship Positions
date/time (UTC)wind fromknots sea level pressurealtimeterstation pressurevisibilityair tempwater tempwave heightnotes
2015-Apr-19 19:20 300 19 5.4 4.0
2015-Apr-19 18:50 300 23 5.4 4.0
2015-Apr-19 18:20 300 20 5.4 4.0
2015-Apr-19 17:50 290 23 5.4 4.0
2015-Apr-19 17:20 300 26 5.4 4.0
2015-Apr-19 16:50 310 27 5.4 4.0
2015-Apr-19 16:20 300 27 5.4 4.0
2015-Apr-19 15:50 300 29 5.4 4.0
2015-Apr-19 15:20 300 27 5.4 4.0
2015-Apr-19 14:50 310 33 gusting 44 5.4 4.0
2015-Apr-19 14:20 300 30 5.4 4.0
2015-Apr-19 13:50 300 31 5.4 4.0
2015-Apr-19 13:20 310 32 5.4 4.0
2015-Apr-19 12:50 310 29 5.4 4.0
2015-Apr-19 12:20 330 32 5.4 4.0
2015-Apr-19 11:50 310 32 5.4 4.0
2015-Apr-19 11:20 300 26 gusting 37 5.4 3.0
2015-Apr-19 10:50 310 29 5.4 4.0
2015-Apr-19 10:20 320 33 5.4 4.0
2015-Apr-19 09:50 310 31 gusting 44 5.4 4.0
2015-Apr-19 09:20 310 26 5.4 4.0
2015-Apr-19 08:50 320 22 5.4 4.0
2015-Apr-19 08:20 310 25 5.4 3.0
2015-Apr-19 07:50 310 24 5.4 4.0
2015-Apr-19 07:20 320 27 gusting 38 5.4 4.0
2015-Apr-19 06:50 320 30 5.4 3.0
2015-Apr-19 06:20 310 27 gusting 39 5.4 3.0
2015-Apr-19 05:50 310 24 5.4 3.0
2015-Apr-19 05:20 310 22 5.4 3.0
2015-Apr-19 04:50 310 18 5.4 3.0
2015-Apr-19 04:20 320 22 5.4 3.0
2015-Apr-19 03:50 320 20 5.4 3.0
2015-Apr-19 03:20 320 20 5.4 3.0
2015-Apr-19 02:50 320 20 5.4 3.0
2015-Apr-19 02:20 330 22 5.4 3.0
2015-Apr-19 01:50 320 19 5.4 3.0
2015-Apr-19 01:20 300 20 gusting 31 5.4 3.0
2015-Apr-19 00:50 310 10 gusting 25 5.4 3.0
2015-Apr-19 00:20 320 10 5.4 2.0
2015-Apr-18 23:50 350 14 gusting 27 5.4 3.0
2015-Apr-18 23:20 260 8 5.4 3.0
2015-Apr-18 22:50 270 5 5.4 3.0
2015-Apr-18 22:20 340 9 5.4 3.0
2015-Apr-18 21:50 310 8 5.4 3.0
2015-Apr-18 21:20 340 13 5.4 3.0
2015-Apr-18 20:50 320 18 5.4 3.0
2015-Apr-18 20:20 320 13 5.4 3.0 Light drizzle.
2015-Apr-18 19:50 330 15 5.4 3.0
2015-Apr-18 19:20 300 11 5.4 3.0
2015-Apr-18 18:50 320 11 5.4 3.0
2015-Apr-18 18:20 300 9 5.4 3.0
2015-Apr-18 17:50 310 3 5.4 3.0
2015-Apr-18 17:20 340 8 5.4 4.0
2015-Apr-18 16:50 340 10 5.4 3.0
2015-Apr-18 16:20 320 7 5.4 4.0
2015-Apr-18 15:50 320 11 5.4 3.0
2015-Apr-18 15:20 320 11 5.4 3.0
2015-Apr-18 14:50 330 9 5.4 3.0
2015-Apr-18 14:20 330 7 5.4 3.0
2015-Apr-18 13:50 350 10 5.4 4.0
2015-Apr-18 13:20 310 8 5.4 4.0
2015-Apr-18 12:50 310 9 5.4 3.0
2015-Apr-18 12:20 300 9 5.4 3.0
2015-Apr-18 11:50 280 10 5.4 3.0
2015-Apr-18 11:20 300 9 5.4 3.0
2015-Apr-18 10:50 300 7 5.4 3.0
2015-Apr-18 10:20 290 8 5.4 2.0 Light drizzle.
2015-Apr-18 09:50 300 10 5.4 3.0
2015-Apr-18 09:20 310 11 5.4 3.0
2015-Apr-18 08:50 310 9 5.4 3.0
2015-Apr-18 08:20 290 10 5.4 2.0
2015-Apr-18 07:50 280 10 5.4 2.0
2015-Apr-18 07:20 300 8 5.4 2.0
2015-Apr-18 06:50 280 7 5.4 2.0
2015-Apr-18 06:20 280 8 5.4 2.0
2015-Apr-18 05:50 290 8 5.4 1.0
2015-Apr-18 05:20 290 9 5.4 1.0
2015-Apr-18 04:50 290 8 5.4 1.0
2015-Apr-18 04:20 300 8 5.4 1.0
2015-Apr-18 03:50 300 8 5.4 1.0
2015-Apr-18 03:20 300 8 5.4 1.0
2015-Apr-18 02:50 320 9 5.4 1.0
2015-Apr-18 02:20 310 8 5.4 1.0
2015-Apr-18 01:50 310 12 5.4 1.0
2015-Apr-18 01:20 290 10 5.4 1.0
2015-Apr-18 00:50 280 11 5.4 2.0
2015-Apr-18 00:20 310 13 5.4 1.0
2015-Apr-17 23:50 340 7 5.4-0.0
2015-Apr-17 23:20 300 8 5.4 1.0
2015-Apr-17 22:50 300 8 5.4 1.0
2015-Apr-17 22:20 280 8 5.4 1.0
2015-Apr-17 21:50 290 7 5.4 1.0
2015-Apr-17 21:20 290 7 5.4 2.0